Location: Bazinghen
(50.8246°N, 1.6616°E)
Time: 16:58:44
(UTC+00:00)

COSMOS 2406 - Visible Passes

Search period start: 06 August 2020 00:00
Search period end: 16 August 2020 00:00
Orbit: 844 x 863 km, 71.0° (Epoch: 05 August)

Date Brightness Start Highest point End Pass type
(mag) Time Alt. Az. Time Alt. Az. Time Alt. Az.
06 Aug 6.1 03:29:53 10° N 03:33:25 16° NNE 03:36:56 10° ENE visible
06 Aug 3.7 20:12:20 10° S 20:17:39 40° ESE 20:22:58 10° NE visible
06 Aug 4.4 21:56:27 10° WSW 22:01:56 44° NW 22:07:26 10° NNE visible
06 Aug 6.1 23:44:37 10° WNW 23:47:49 15° NNW 23:51:02 10° N visible
07 Aug 6.1 03:18:25 10° N 03:21:58 16° NNE 03:25:29 10° ENE visible
07 Aug 3.7 20:00:50 10° S 20:06:09 41° ESE 20:11:30 10° NE visible
07 Aug 4.4 21:45:00 10° WSW 21:50:28 44° NW 21:55:58 10° NNE visible
07 Aug 6.1 23:33:12 10° WNW 23:36:22 15° NNW 23:39:33 10° N visible
08 Aug 6.1 03:06:56 10° N 03:10:30 17° NNE 03:14:03 10° ENE visible
08 Aug 4.5 21:33:32 10° WSW 21:39:00 43° NW 21:44:30 10° NNE visible
08 Aug 6.2 23:21:46 10° WNW 23:24:55 15° NNW 23:28:04 10° N visible
09 Aug 6.2 02:55:28 10° N 02:59:03 17° NNE 03:02:37 10° ENE visible
09 Aug 4.5 21:22:04 10° WSW 21:27:32 43° NW 21:33:01 10° NNE visible
09 Aug 6.2 23:10:20 10° WNW 23:13:28 15° NNW 23:16:36 10° N visible
10 Aug 6.2 02:43:59 10° N 02:47:35 17° NNE 02:51:11 10° ENE visible
10 Aug 4.6 21:10:37 10° WSW 21:16:04 43° NW 21:21:32 10° NNE visible
10 Aug 6.3 22:58:54 10° WNW 23:02:01 15° NNW 23:05:07 10° N visible
11 Aug 6.2 02:32:30 10° N 02:36:08 17° NNE 02:39:45 10° ENE visible
11 Aug 4.6 20:59:10 10° WSW 21:04:37 42° NW 21:10:03 10° NNE visible
11 Aug 6.3 22:47:28 10° WNW 22:50:33 14° NNW 22:53:38 10° N visible
12 Aug 6.3 02:21:02 10° N 02:24:40 17° NNE 02:28:18 10° ENE visible
12 Aug 4.7 20:47:42 10° WSW 20:53:08 42° NW 20:58:34 10° NNE visible
12 Aug 6.4 22:36:02 10° WNW 22:39:05 14° NNW 22:42:09 10° N visible
13 Aug 6.2 02:09:33 10° N 02:13:13 17° NNE 02:16:51 10° ENE visible
13 Aug 4.1 03:53:14 10° NNW 03:58:52 55° NE 04:04:25 10° SE visible
13 Aug 4.7 20:36:15 10° WSW 20:41:40 41° NW 20:47:06 10° NNE visible
13 Aug 6.4 22:24:36 10° WNW 22:27:38 14° NNW 22:30:40 10° N visible
14 Aug 6.2 01:58:04 10° N 02:01:45 17° NNE 02:05:25 10° ENE visible
14 Aug 4.1 03:41:46 10° NNW 03:47:23 56° NE 03:52:57 10° SE visible
14 Aug 4.7 20:24:47 10° WSW 20:30:12 41° NW 20:35:37 10° NNE visible
14 Aug 6.4 22:13:10 10° WNW 22:16:10 14° NNW 22:19:10 10° N visible
15 Aug 6.2 01:46:35 10° N 01:50:17 17° NNE 01:53:58 10° ENE visible
15 Aug 4.0 03:30:17 10° NNW 03:35:55 56° NE 03:41:29 10° SE visible
15 Aug 4.8 20:13:20 10° WSW 20:18:44 41° NW 20:24:08 10° NNE visible
15 Aug 6.4 22:01:44 10° NW 22:04:43 14° NNW 22:07:41 10° N visible
